Погода в Мирном

Россия / Томская область     56°26′35″N   85°07′07″E
темп.,
°C
ветер,
м/с
пор.,
м/с
влажн.,
%
обл.,
%
осадки,
мм/ч
давл.,
гПа
погр.,
м
21 апреля, ср
ср2101:00−7ю2787100 0.1 1022204
04:00−6ююз3793100 0.1 1021483
07:00−5ю3891100 0.3 1021524
10:00−3ю4582100 0.2 1021824
13:00−1ю3474100 0.5 10221104
16:000ююв226494 0.3 10231165
19:000всв3475100 0.5 1026235
22:00−3св259460 0.1 1029123
22 апреля, чт
чт2201:00−5св279140 0.1 1032128
04:00−7ссв27945 0.0 1034138
07:00−6ссв28915 0.0 1038218
10:00−1св36715 0.0 1040767
13:00+1ссв4562100 0.1 10411412
16:00+2ссв356898 0.3 10421158
19:00+2ссв367342 0.6 1043715
22:00−3ссв25925 0.0 104580
23 апреля, пт
пт2301:00−3ссв27945 0.0 1046152
04:00−4ссв27945 0.0 1046174
07:00−3св28915 0.0 1046222
10:00+2св46735 0.0 1047816
13:00+4св455699 0.0 10451543
16:00+5св4554100 0.1 10441649
19:00+3ссв367011 0.1 1044378
22:00−1ссв28885 0.0 1044155
24 апреля, сб
сб2401:00−2св27925 0.0 1043150
04:00−2св27925 0.0 1042146
07:00−2ссв28875 0.0 1041230
10:00+3ссв466795 0.0 1039850
13:00+5ссв4557100 0.0 10361228
16:00+6ссв4557100 0.0 10351322
19:00+4ссв257298 0.0 1034222
22:00+1с22845 0.0 103421
25 апреля, вс
вс2501:000с228847 0.0 103416
04:00−1ссз118910 0.0 103313
07:000ссз13865 0.0 103483
10:00+4сз23665 0.0 1033585
13:00+7сз235898 0.0 10331231
16:00+8зсз235578 0.0 10321420
19:00+7сз2471100 0.0 1032241
22:00+4ю0079100 0.0 103210